Location: *
(51.1667°N, 71.4333°E)
Time: 22:23:31
(UTC+00:00)

Daily predictions for brighter satellites

Satellite Brightness Start Highest point End
(mag) Time Altitude Azimuth Time Altitude Azimuth Time Altitude Azimuth
STARLINK-1202 3.9 14:24:29 10° W 14:28:37 67° N 14:32:45 10° E
Cosmos 2369 Rocket 2.6 14:23:41 10° NW 14:29:21 68° WSW 14:34:56 10° SSE
ADEOS Rocket 3.5 14:22:58 10° NNE 14:29:32 70° WNW 14:35:24 10° SSW
ARGOS Delta rocket 4.3 14:26:07 10° S 14:31:27 85° WSW 14:36:59 10° NNW
Cosmos 1758 3.6 14:27:55 10° SSW 14:32:01 76° WNW 14:36:07 10° N
NOSS 3-4 (A) 3.9 14:26:01 10° NW 14:32:50 71° NE 14:40:22 10° SE
NOSS 3-4 (C) 3.9 14:26:08 10° NW 14:32:56 70° NE 14:40:29 10° SE
Cosmos 1818 4.0 14:28:54 10° S 14:33:54 39° ESE 14:38:57 10° NE
Aureole 2 Rocket 4.0 14:31:05 10° NW 14:34:20 37° WSW 14:37:31 10° S
STARLINK-1203 3.9 14:31:15 10° W 14:35:27 67° N 14:39:38 10° E
SL-4 R/B 2.8 14:35:34 10° SSW 14:38:19 23° SE 14:41:05 10° E
STARLINK-1246 3.9 14:34:29 10° W 14:38:38 66° N 14:42:46 10° E
Cosmos 2154 Rocket 4.3 14:33:30 10° N 14:39:41 49° ENE 14:45:47 10° SSE
ERBS 3.7 14:39:23 10° WNW 14:42:27 31° N 14:45:31 10° ENE
Nadezhda 1 Rocket 4.4 14:37:22 10° SSE 14:43:18 43° E 14:49:14 10° NNE
STARLINK-1224 3.9 14:39:28 10° W 14:43:36 67° N 14:47:44 10° E
Cosmos 1340 Rocket 4.1 14:40:36 10° SE 14:43:41 21° E 14:46:45 10° NE
NOSS 3-3 (A) 4.0 14:38:02 10° SSW 14:43:56 70° SE 14:50:38 10° NE
NOSS 3-3 (C) 4.0 14:38:10 10° SSW 14:44:01 70° SE 14:50:43 10° NE
Cosmos 2315 Rocket 4.5 14:38:28 10° SSW 14:44:47 70° WNW 14:51:12 10° N
Cosmos 1328 4.0 14:41:19 10° N 14:45:15 51° ENE 14:49:09 10° SSE
COSMOS 2455 3.4 14:40:03 10° NNW 14:45:53 47° NE 14:51:25 11° ESE
STARLINK-1228 2.7 14:43:48 10° WNW 14:46:45 76° NNE 14:49:17 13° E
STARLINK-67 2.3 14:45:09 10° WNW 14:47:43 87° SSW 14:49:48 14° ESE
Cosmos 1703 3.4 14:44:20 10° N 14:48:15 57° ENE 14:52:09 10° SSE
STARLINK-1225 3.9 14:44:29 10° W 14:48:37 67° N 14:52:45 10° E
Cosmos 2058 Rocket 4.1 14:45:06 10° SE 14:48:53 27° E 14:52:42 10° NNE
CZ-4 R/B 4.4 14:48:19 10° SW 14:50:33 15° W 14:52:49 10° NW
MONITOR-E 4.0 14:48:08 10° S 14:50:45 71° WSW 14:53:24 10° NNW
CZ-2C R/B 3.0 14:47:13 10° SSE 14:52:06 79° WSW 14:56:53 10° NNW
STARLINK-1230 3.9 14:49:28 10° W 14:53:36 67° N 14:57:36 11° E
Resurs 01 Rocket 2.2 14:52:25 10° SE 14:56:27 38° ENE 15:00:34 10° N
H-2A R/B 2.4 14:51:33 10° S 14:56:44 67° WSW 15:01:48 10° NNW
Cosmos 1943 3.2 14:51:12 10° SSW 14:56:49 70° ESE 15:02:30 10° NNE
STARLINK-1243 3.9 14:54:26 10° W 14:58:34 67° N 15:02:22 12° E
Meteor 1-11 4.3 14:52:50 10° N 14:58:36 62° ENE 15:04:14 10° SSE
Cosmos 1726 Rocket 3.8 14:55:42 10° SSE 14:59:56 49° E 15:04:15 10° NNE
Cosmos 2074 Rocket 4.2 14:56:46 10° NNW 15:03:04 81° W 15:09:22 10° S
STARLINK-1236 3.8 14:59:26 10° W 15:03:35 68° N 15:07:10 13° E
Cosmos 1825 Rocket 3.7 14:59:42 10° NNW 15:04:07 76° W 15:08:28 10° S
USA 234 4.2 14:59:33 10° ENE 15:04:43 24° SE 15:09:50 10° S
Terra 4.0 15:03:32 10° ENE 15:05:04 11° NE 15:06:36 10° NNE
ATLAS 2AS CENTAUR R/B 3.0 14:57:33 10° NW 15:05:18 84° SW 15:12:00 12° SE
Cosmos 1908 3.3 15:01:56 10° S 15:05:41 53° E 15:09:29 10° NNE
STARLINK-1233 2.9 15:03:52 10° WNW 15:07:00 78° NNE 15:09:06 19° E
Cosmos 1953 3.0 15:03:07 10° SSW 15:07:02 58° WNW 15:11:00 10° N
USA 186 3.0 15:03:52 10° S 15:07:04 43° W 15:10:09 10° NNW
STARLINK-1212 2.9 15:04:20 10° WNW 15:07:28 78° NNE 15:09:32 20° E
FREGAT/IRIS 4.1 15:05:01 10° SSW 15:07:33 34° W 15:10:05 10° NNW
STARLINK-1105 2.9 15:04:46 10° WNW 15:07:55 79° NNE 15:09:59 20° E
STARLINK-1206 2.9 15:05:15 10° WNW 15:08:23 79° NNE 15:10:23 20° E
STARLINK-1247 2.9 15:05:43 10° WNW 15:08:51 79° NNE 15:10:50 20° E
STARLINK-1227 2.9 15:06:07 10° WNW 15:09:16 80° NNE 15:11:16 20° E
Cosmos 2251 Rocket 4.1 15:04:01 10° SW 15:09:21 65° WNW 15:14:45 10° NNE
STARLINK-1218 2.8 15:06:37 10° WNW 15:09:45 80° NNE 15:11:42 21° E
STARLINK-1226 2.9 15:07:02 10° WNW 15:10:11 80° NNE 15:12:07 21° E
Cosmos 1656 Rocket 4.0 15:04:36 10° NW 15:10:14 66° WSW 15:15:46 10° SSE
STARLINK-1254 2.9 15:07:28 10° WNW 15:10:38 81° NNE 15:12:34 21° E
STARLINK-1234 2.7 15:07:36 10° WNW 15:10:39 88° SSW 15:12:25 23° ESE
STARLINK-1215 2.8 15:07:58 10° WNW 15:11:06 81° NNE 15:13:00 22° E
STARLINK-1231 2.8 15:08:25 10° WNW 15:11:33 81° NNE 15:13:26 22° ESE
STARLINK-1209 2.7 15:09:25 10° WNW 15:12:27 84° SSW 15:14:08 24° ESE
STARLINK-1232 2.8 15:09:19 10° WNW 15:12:27 82° NNE 15:14:18 22° ESE
STARLINK-60 4.1 15:09:54 10° SSW 15:12:38 24° SE 15:13:28 22° ESE
STARLINK-1217 2.8 15:09:45 10° WNW 15:12:54 82° NNE 15:14:44 23° ESE
STARLINK-1208 2.9 15:10:10 10° WNW 15:13:19 82° NNE 15:15:10 23° ESE
STARLINK-1269 3.8 15:09:25 10° WNW 15:13:33 70° N 15:16:44 17° E
MOS 1 Rocket 3.9 15:08:23 10° NNE 15:13:34 47° E 15:18:48 10° S
STARLINK-1229 2.8 15:10:39 10° WNW 15:13:47 83° NNE 15:15:35 23° ESE
STARLINK-1271 2.8 15:11:07 10° WNW 15:14:15 83° NNE 15:16:02 23° ESE
STARLINK-1270 2.8 15:11:34 10° WNW 15:14:42 83° NNE 15:16:28 24° ESE
CZ-2C R/B 2.9 15:09:50 10° NNE 15:14:47 44° E 15:19:43 10° S
STARLINK-1154 2.8 15:12:01 10° WNW 15:15:09 84° NNE 15:16:53 24° ESE
STARLINK-1197 2.8 15:12:55 10° WNW 15:16:03 84° NNE 15:17:45 24° ESE
Cosmos 921 Rocket 3.1 15:12:01 10° NNW 15:16:10 55° ENE 15:18:59 19° SE
STARLINK-1189 2.8 15:13:22 10° WNW 15:16:30 85° NNE 15:18:12 25° ESE
STARLINK-1198 2.8 15:13:49 10° WNW 15:16:57 85° NNE 15:18:37 25° ESE
STARLINK-1188 2.8 15:14:17 10° WNW 15:17:25 85° NNE 15:19:04 25° ESE
STARLINK-1235 2.8 15:14:55 10° WNW 15:18:04 85° SSW 15:19:42 26° ESE
STARLINK-1187 2.8 15:15:20 10° WNW 15:18:31 89° S 15:20:09 26° ESE
STARLINK-1200 3.8 15:14:24 10° WNW 15:18:33 71° N 15:21:31 18° E
MetOp-A 4.2 15:13:49 10° SSE 15:19:11 88° WSW 15:24:35 10° NNW
BREEZE-M DEB (TANK) 2.0 15:15:01 10° WSW 15:19:19 48° S 15:20:19 28° ESE
STARLINK-1199 2.8 15:16:12 10° WNW 15:19:22 87° NNE 15:20:59 26° ESE
Cosmos 1610 Rocket 4.5 15:13:08 10° N 15:19:23 90° SSE 15:25:31 10° S
STARLINK-1191 2.8 15:16:40 10° WNW 15:19:48 87° N 15:21:24 27° ESE
STARLINK-1210 2.8 15:17:07 10° WNW 15:20:16 87° N 15:21:51 27° ESE
STARLINK-1221 2.8 15:17:33 10° WNW 15:20:43 88° NNE 15:22:16 27° ESE
STARLINK-1219 2.8 15:18:01 10° WNW 15:21:10 88° NNE 15:22:43 27° ESE
SL-16 R/B 4.3 15:16:33 10° WSW 15:21:26 29° NW 15:26:20 10° NNE
STARLINK-1222 2.8 15:18:27 10° WNW 15:21:37 88° NNE 15:23:08 28° ESE
STARLINK-1211 2.8 15:18:55 10° WNW 15:22:05 89° NNE 15:23:35 28° ESE
ATLAS CENTAUR R/B 3.6 15:20:01 10° NNW 15:22:31 16° NNE 15:24:55 10° NE
STARLINK-1214 2.8 15:19:22 10° WNW 15:22:32 89° NE 15:24:01 29° ESE
STARLINK-1245 2.8 15:19:51 10° WNW 15:22:59 89° ENE 15:24:25 29° ESE
ARGOS 4.0 15:17:54 10° S 15:23:07 50° W 15:28:23 10° NNW
Cosmos 2228 3.0 15:18:49 10° S 15:23:07 86° WNW 15:27:30 10° N
STARLINK-1238 2.8 15:20:16 10° WNW 15:23:25 90° NNW 15:24:53 29° ESE
STARLINK-1192 3.7 15:19:23 10° WNW 15:23:32 72° N 15:26:18 20° E
STARLINK-1205 2.8 15:21:12 10° WNW 15:24:20 89° SSW 15:25:44 30° ESE
DMSP B5D2-2 4.1 15:19:27 10° NNE 15:24:39 61° ESE 15:29:49 10° S
STARLINK-1204 2.8 15:21:40 10° WNW 15:24:47 89° SSW 15:26:10 31° ESE
Cosmos 1953 Rocket 3.9 15:20:34 10° NNW 15:25:01 69° W 15:29:29 10° S
SeaSat 1 4.0 15:22:09 10° NNE 15:26:43 38° NW 15:31:15 10° WSW
Iridium 4 Rocket 4.2 15:24:02 10° NNE 15:27:28 23° ENE 15:28:26 21° E
STARLINK-1244 3.7 15:24:22 10° WNW 15:28:31 74° N 15:31:04 22° E
Cosmos 1606 Rocket 3.8 15:24:48 10° SSW 15:29:14 72° WNW 15:33:44 10° N
Cosmos 1726 3.6 15:28:37 10° SW 15:32:09 40° WNW 15:35:43 10° N
Aureole 1 Rocket 4.0 15:25:23 10° SSW 15:32:50 72° ESE 15:38:38 10° NNE
Cosmos 1140 Rocket 3.6 15:27:50 10° S 15:32:50 50° ESE 15:37:50 10° NNE
STARLINK-1138 3.7 15:29:20 10° WNW 15:33:30 75° N 15:35:51 25° E
CZ-2C R/B 3.8 15:28:57 10° NNE 15:33:43 87° WNW 15:38:21 10° SSW
Cosmos 1461 3.2 15:29:17 10° NW 15:33:47 74° SW 15:36:41 23° SSE
Cosmos 1190 Rocket 4.0 15:29:29 10° S 15:34:42 59° ESE 15:39:55 10° NNE
Spot 2 Rocket 3.8 15:33:45 23° SE 15:36:47 52° ENE 15:41:45 10° N
STARLINK-1143 3.7 15:34:19 10° WNW 15:38:28 77° N 15:40:38 27° E
STARLINK-1201 2.9 15:35:15 10° WNW 15:38:31 81° SSW 15:39:33 41° ESE
Cosmos 1980 Rocket 4.1 15:35:07 10° N 15:38:52 18° NNE 15:42:34 10° ENE
Iridium 2 4.4 15:40:21 31° ESE 15:40:51 32° E 15:44:18 10° NNE
Abrixas rocket 2.5 15:39:54 10° W 15:42:43 41° S 15:42:58 40° S
STARLINK-1241 3.6 15:39:20 10° WNW 15:43:29 79° NNE 15:45:27 30° E
Cosmos 1408 4.4 15:41:48 10° NNE 15:44:10 17° ENE 15:44:10 17° ENE
Cosmos 614 Rocket 4.0 15:42:41 10° SSW 15:47:55 83° WNW 15:53:11 10° NNE
CZ-4C R/B 3.8 15:42:02 10° NW 15:48:00 36° NNE 15:54:02 13° E
STARLINK-1239 3.6 15:44:17 10° WNW 15:48:27 81° NNE 15:50:12 34° E
Cosmos 2151 4.4 15:47:42 10° NNE 15:50:56 21° ENE 15:51:16 21° ENE
SL-24 R/B - RUBIN 2 4.2 15:47:10 10° SSW 15:52:48 69° SE 15:59:09 10° NE
STARLINK-1240 3.6 15:49:17 10° WNW 15:53:27 84° NNE 15:54:59 38° E
Cosmos 468 Rocket 4.4 15:48:26 10° NNW 15:53:28 47° ENE 15:55:27 31° ESE
Cosmos 1076 Rocket 3.8 15:51:25 10° N 15:55:35 48° ENE 15:56:38 39° ESE
Cosmos 2341 Rocket 4.0 15:49:23 10° N 15:55:50 88° WSW 16:00:56 17° S
BREEZE M DEB (TANK) 3.4 15:49:28 10° SW 15:56:53 44° SSE 15:57:36 39° SE
ATLAS 5 CENTAUR R/B 1.5 15:53:10 10° SSW 15:57:19 60° SE 16:02:01 10° NE
Cosmos 2058 3.2 15:54:04 10° N 15:58:05 48° ENE 15:58:53 42° ESE
STARLINK-1216 3.5 15:54:17 10° WNW 15:58:27 86° NNE 15:59:47 42° ESE
Landsat 7 3.9 15:58:06 35° SE 15:59:55 59° ENE 16:04:37 10° N
Cosmos 1455 4.4 16:02:18 14° NE 16:02:18 14° NE 16:03:17 10° NE
Cosmos 1892 3.2 15:57:55 10° N 16:01:38 41° ENE 16:01:55 40° E
Cosmos 676 Rocket 4.0 15:57:58 10° S 16:03:11 63° ESE 16:08:23 10° NNE
STARLINK-1237 3.5 15:59:15 10° WNW 16:03:25 89° NNE 16:04:33 47° ESE
Cosmos 407 Rocket 3.6 15:58:25 10° SSW 16:03:34 74° WNW 16:08:43 10° NNE
RESURS DK-1 3.6 16:02:40 10° NNW 16:06:21 29° NE 16:07:10 27° ENE
STARLINK-1202 3.5 16:04:13 10° WNW 16:08:23 88° SSW 16:09:19 53° ESE
ERS-1 Rocket 3.2 16:07:32 38° ESE 16:09:02 51° ENE 16:13:55 10° N
In-Cosmos 22 Rocket 4.2 16:03:13 10° N 16:09:05 77° ENE 16:11:52 33° SSE
Cosmos 2218 Rocket 3.9 16:05:50 10° N 16:12:03 79° E 16:15:19 30° SSE
Cosmos 1825 3.7 16:11:42 10° NNE 16:14:20 24° NE 16:14:20 24° NE
STARLINK-1203 3.5 16:11:10 10° WNW 16:15:23 81° SSW 16:16:05 60° SE
Cosmos 1818 4.4 16:12:06 10° WSW 16:17:24 51° NW 16:22:44 10° NE
SL-4 R/B 1.7 16:14:05 10° WSW 16:17:02 62° SW 16:17:02 62° SW
Cosmos-2242 4.4 16:18:47 24° ENE 16:18:47 24° ENE 16:21:21 10° NNE
CZ-4B DEB 4.5 16:17:55 64° NE 16:17:55 64° NE 16:21:05 10° N
STARLINK-1246 3.5 16:14:12 10° WNW 16:18:21 82° SSW 16:18:54 65° SE
ERBS 2.3 16:15:45 10° WNW 16:19:01 75° N 16:19:01 75° N
Cosmos 1340 Rocket 4.1 16:16:02 10° SW 16:19:53 41° WNW 16:23:44 10° N
STARLINK-1224 3.4 16:19:10 10° WNW 16:23:20 79° SSW 16:23:40 71° SSE
SPOT 1/Viking Rocket 3.5 16:22:01 43° SSE 16:23:49 83° ENE 16:29:05 10° NNW
Cosmos 1300 3.2 16:24:23 30° SW 16:26:04 58° WNW 16:29:52 10° N
COSMOS 2406 4.2 16:27:24 28° E 16:27:24 28° E 16:31:07 10° NE
Cosmos 2058 Rocket 4.5 16:22:30 10° SW 16:26:44 39° WNW 16:30:59 10° N
Cosmos 1954 Rocket 3.9 16:21:51 10° SSW 16:27:07 90° NNE 16:32:22 10° NNE
SPOT 5 2.7 16:27:27 56° E 16:27:47 58° ENE 16:32:03 10° N
STARLINK-1225 3.5 16:24:10 10° WNW 16:28:19 75° SSW 16:28:28 74° S
Cosmos 2181 Rocket 3.9 16:24:35 18° S 16:29:25 87° W 16:35:38 10° N
Cosmos 1741 Rocket 4.4 16:30:32 42° E 16:30:32 42° E 16:35:10 10° NE
SL-8 Rocket 4.2 16:24:34 10° NNW 16:30:51 69° W 16:34:36 26° S
Cosmos 2208 Rocket 4.4 16:25:56 10° NNW 16:30:58 47° ENE 16:31:54 42° E
COSMOS 2455 3.6 16:26:08 10° NW 16:31:52 46° WSW 16:34:34 28° S
Resurs 01 Rocket 3.4 16:29:58 14° SSW 16:33:03 28° W 16:36:53 10° NW
STARLINK-1230 3.5 16:29:08 10° WNW 16:33:15 72° SSW 16:33:15 72° SSW
Cosmos 864 Rocket 4.5 16:27:44 10° NNW 16:34:00 82° W 16:36:48 35° S
CARTOSAT-1 3.4 16:35:25 70° ESE 16:35:40 73° ENE 16:40:00 10° N
Meteor 2-12 Rocket 4.3 16:30:05 10° N 16:36:15 88° E 16:38:27 42° SSE
Okean 3 Rocket 3.9 16:32:48 10° N 16:36:58 50° ENE 16:36:58 50° ENE
STARLINK-1243 3.7 16:34:06 10° WNW 16:38:01 67° SW 16:38:01 67° SW
Meteor 2-1 Rocket 4.2 16:39:12 41° S 16:41:21 77° E 16:47:20 10° NNE
Terra 1.9 16:41:33 58° E 16:41:53 60° ENE 16:46:35 10° N
Cosmos 2366 rocket 4.1 16:36:53 10° NNW 16:43:00 69° W 16:45:50 33° SSW
STARLINK-1236 3.8 16:39:06 10° WNW 16:42:49 60° WSW 16:42:49 60° WSW
Meteor 2-10 Rocket 3.8 16:44:42 48° E 16:44:42 48° E 16:49:43 10° NNE
Cosmos 2369 4.0 16:40:28 10° NNW 16:46:02 54° NE 16:47:05 47° E
Cosmos 1766 Rocket 4.0 16:41:55 10° N 16:45:59 50° ENE 16:45:59 50° ENE
IGS 5A 4.0 16:47:11 47° SW 16:47:45 51° W 16:51:49 10° NNW
USA 234 3.1 16:41:59 10° ENE 16:48:32 70° SE 16:55:03 10° SW
Cosmos 1763 Rocket 3.4 16:43:57 10° NNW 16:49:11 82° WSW 16:49:57 65° S
Mayak 0.8 16:48:07 10° NE 16:49:28 17° NE 16:49:28 17° NE
STARLINK-1269 4.2 16:49:04 10° WNW 16:52:22 48° WSW 16:52:22 48° WSW
CZ-2C R/B 4.2 16:50:24 10° N 16:54:59 33° WNW 16:59:33 10° SW
Cosmos 1814 Rocket 4.1 16:49:44 10° NNW 16:55:04 62° ENE 16:55:34 59° E
Cosmos 1697 Rocket 2.8 16:49:46 10° NNW 16:55:26 63° NE 16:56:16 56° E
Cosmos 1356 Rocket 4.1 16:56:42 45° NE 16:56:42 45° NE 16:59:49 10° NNE
Nadezhda 3 Rocket 4.1 16:55:22 52° ESE 16:56:06 56° E 17:02:14 10° NNE
STARLINK-1200 4.5 16:54:03 10° WNW 16:57:09 43° WSW 16:57:09 43° WSW
Cosmos 1812 Rocket 4.1 16:59:04 46° WSW 16:59:52 54° WNW 17:04:09 10° N
USA 32 3.9 16:56:10 10° N 17:01:26 83° W 17:02:05 69° SSW
Cosmos 540 Rocket 3.4 16:56:55 10° NNW 17:02:06 69° ENE 17:02:18 68° E
ATLAS CENTAUR R/B 2.2 16:58:34 10° NW 17:01:43 40° N 17:01:43 40° N
Iridium 4 Rocket 4.1 17:03:41 10° NNW 17:07:38 38° W 17:08:14 35° WSW
SL-16 R/B 3.9 17:06:19 10° NNW 17:10:51 23° NE 17:12:43 20° ENE
Meteor 2-3 Rocket 3.9 17:06:03 10° N 17:11:45 57° ENE 17:11:59 57° E
Cosmos 2360 Rocket 4.5 17:12:05 10° N 17:15:29 16° NNE 17:18:47 10° ENE
Cosmos 1850 Rocket 3.9 17:15:53 81° WSW 17:16:06 84° WNW 17:21:20 10° NNE
Cosmos 1408 4.1 17:16:02 10° NNW 17:18:30 35° NW 17:18:30 35° NW
Cosmos 2322 Rocket 3.9 17:15:40 10° NNW 17:20:08 23° NE 17:21:57 20° ENE
Cosmos 2239 Rocket 4.3 17:15:07 10° N 17:21:24 88° ENE 17:22:13 70° SSE
Cosmos 1980 Rocket 2.4 17:18:33 10° NNW 17:24:07 59° NE 17:24:20 58° ENE
Cosmos 1821 Rocket 4.0 17:18:25 10° NNW 17:24:48 79° W 17:25:54 63° SSW
Cosmos 841 Rocket 3.5 17:20:06 10° NNW 17:25:19 73° WSW 17:25:19 73° WSW
Cosmos 1656 4.1 17:22:00 10° NW 17:27:32 52° WSW 17:27:53 51° SW
Cosmos 2151 4.0 17:24:27 10° NNW 17:27:51 43° WNW 17:27:51 43° WNW
Cosmos 1408 Rocket 4.2 17:24:16 10° N 17:27:44 53° N 17:27:44 53° N
Cosmos 1934 Rocket 3.8 17:25:29 10° N 17:31:49 77° E 17:32:11 74° ESE
ASTEX 1 3.6 17:33:09 71° N 17:33:09 71° N 17:37:35 10° N
Cosmos 1570 Rocket 4.5 17:29:50 10° NNW 17:35:01 52° WSW 17:35:01 52° WSW
Cosmos 1455 3.9 17:37:11 33° NNW 17:37:11 33° NNW 17:39:41 10° N
CZ-4C R/B 2.9 17:30:35 10° NW 17:37:33 78° NE 17:39:12 58° ESE
Cosmos 2360 4.1 17:35:06 10° NNW 17:40:39 84° NW 17:40:39 84° NW
ATLAS 5 CENTAUR R/B 3.3 17:38:12 10° W 17:42:15 34° NNW 17:46:52 10° NE
Cosmos 1605 Rocket 4.0 17:37:48 10° N 17:43:55 64° ENE 17:43:55 64° ENE
RESURS DK-1 4.0 17:40:35 10° NW 17:43:04 30° WNW 17:43:04 30° WNW
ERS-1 Rocket 4.5 17:47:31 26° WSW 17:48:06 26° W 17:52:19 10° NW
Cosmos 2278 3.7 17:43:07 10° NNW 17:48:27 77° WNW 17:48:27 77° WNW
Cosmos 1825 4.3 17:47:04 10° NNW 17:49:09 24° NW 17:49:09 24° NW
Cosmos 2082 Rocket 3.2 17:55:10 36° ENE 17:55:10 36° ENE 17:58:40 10° NE
Cosmos 2221 4.3 17:55:47 27° NNE 17:55:47 27° NNE 17:57:56 10° NNE
Cosmos-2242 4.4 17:55:35 35° WNW 17:55:35 35° WNW 17:59:09 10° N
Meteor 1-27 4.4 18:04:33 68° NE 18:04:33 68° NE 18:09:40 10° NNE
Cosmos 1833 Rocket 2.9 18:07:33 64° NNE 18:07:33 64° NNE 18:12:20 10° NNE
COSMOS 2406 3.7 18:09:23 50° W 18:10:12 55° NW 18:15:51 10° NNE
Thor Agena Rocket 4.0 18:05:27 10° NNE 18:09:30 57° N 18:09:30 57° N
ALOS 2 4.1 18:19:44 35° N 18:19:44 35° N 18:22:24 10° N
Terra 3.8 18:20:25 21° W 18:20:25 21° W 18:23:36 10° NW
BREEZE M DEB (TANK) 4.4 18:18:22 10° W 18:24:02 82° S 18:47:48 10° E
Mayak 0.6 18:23:30 10° N 18:26:02 29° NNW 18:26:02 29° NNW
USA 234 3.6 18:25:05 10° ENE 18:31:33 64° NNW 18:37:59 10° W
Cosmos 1697 Rocket 4.2 18:34:20 10° NW 18:38:00 25° W 18:38:00 25° W
ATLAS CENTAUR R/B 4.3 18:37:53 10° WNW 18:37:55 10° WNW 18:37:55 10° WNW
Cosmos 2344 4.4 18:36:36 10° NW 18:45:59 69° SW 18:48:35 56° S
Cosmos 1607 4.4 18:53:12 53° NE 18:53:12 53° NE 18:57:57 10° NE
SL-16 R/B 2.7 18:50:04 10° NNW 18:54:34 57° NNW 18:54:34 57° NNW
Cosmos 1459 Rocket 4.1 18:51:34 10° N 18:57:25 75° N 18:57:25 75° N
Cosmos 2360 Rocket 2.9 18:55:27 10° NNW 19:00:32 48° NE 19:00:32 48° NE
Cosmos 1727 Rocket 4.1 19:03:14 70° NW 19:03:14 70° NW 19:09:09 10° N
Cosmos 2322 Rocket 2.7 18:59:21 10° NNW 19:03:45 55° NNW 19:03:45 55° NNW
Cosmos 1980 Rocket 3.8 19:03:03 10° NW 19:06:06 24° WNW 19:06:06 24° WNW
Cosmos 1802 Rocket 4.1 19:05:16 10° N 19:10:49 71° N 19:10:49 71° N
Cosmos 2333 Rocket 3.7 19:07:04 10° NNW 19:12:03 30° NE 19:13:32 26° ENE
Cosmos 1725 Rocket 4.2 19:05:50 10° N 19:11:42 63° NE 19:11:42 63° NE
Cosmos 2016 Rocket 4.1 19:06:56 10° N 19:12:47 72° NNE 19:12:47 72° NNE
Cosmos 2100 Rocket 4.3 19:11:54 10° NNW 19:17:17 61° NW 19:17:17 61° NW
CZ-2D R/B 4.5 19:19:32 10° ENE 19:21:51 13° E 19:21:51 13° E
Cosmos 2123 Rocket 4.3 19:24:52 57° ENE 19:24:52 57° ENE 19:30:13 10° NNE
Cosmos 968 Rocket 4.4 19:26:50 46° NNW 19:26:50 46° NNW 19:30:53 10° NNE
CZ-4C R/B 3.9 19:19:26 10° NW 19:24:22 32° W 19:24:22 32° W
ATLAS 5 CENTAUR R/B 4.3 19:24:38 10° NW 19:28:21 21° N 19:32:28 10° NE
Cosmos 2173 Rocket 4.4 19:23:00 10° NNW 19:28:06 54° WNW 19:28:06 54° WNW
Cosmos 2082 Rocket 3.4 19:36:58 34° WNW 19:37:31 35° NW 19:42:43 10° NNE
Helios 1B rocket 4.4 19:52:49 10° N 19:54:48 27° N 19:54:48 27° N
Cosmos 2219 Rocket 2.8 19:54:41 10° NNW 20:00:10 51° NE 20:00:21 51° ENE
SJ 16-02 3.6 20:09:19 19° ENE 20:09:19 19° ENE 20:11:14 10° NE
Cosmos 2228 Rocket 4.4 20:12:52 39° NNE 20:12:52 39° NNE 20:15:49 10° NNE
USA 234 3.8 20:07:49 10° E 20:14:09 55° N 20:20:29 10° WNW
Cosmos 2322 4.1 20:10:23 10° NNW 20:15:00 59° NNW 20:15:00 59° NNW
COSMOS 2428 3.0 20:10:41 10° NNW 20:16:22 62° NE 20:16:26 62° ENE
SL-19 R/B 4.3 20:20:37 10° NNE 20:25:55 75° NNE 20:25:55 75° NNE
ADEOS II 4.1 20:27:18 10° NE 20:30:50 18° E 20:32:06 17° ESE
SL-16 R/B 2.6 20:30:15 68° ESE 20:30:55 74° ENE 20:37:09 10° NNW
Cosmos 1733 Rocket 4.5 20:27:09 10° N 20:30:43 35° NE 20:30:43 35° NE
Cosmos 1680 Rocket 4.1 20:31:54 10° NNW 20:35:47 50° NNW 20:35:47 50° NNW
SL-16 R/B 4.4 20:35:22 10° WNW 20:36:26 13° WNW 20:36:26 13° WNW
Resurs 1-4 Rocket 2.7 20:35:32 10° NNE 20:40:31 49° E 20:40:31 49° E
SL-16 R/B 4.4 20:36:30 10° NNW 20:41:01 24° NE 20:45:30 10° E
UNK 4.4 20:42:37 52° N 20:42:37 52° N 20:46:13 10° NNW
Cosmos 1891 Rocket 4.4 20:35:48 10° N 20:42:05 79° ENE 20:42:32 74° SE
Cosmos 2360 Rocket 3.7 20:39:44 10° NW 20:42:16 24° WNW 20:42:16 24° WNW
Cosmos 2322 Rocket 4.4 20:44:36 10° WNW 20:45:33 13° WNW 20:45:33 13° WNW
Cosmos 1072 Rocket 4.3 20:43:52 10° N 20:50:06 88° WSW 20:50:26 81° S
Cosmos 1833 4.2 20:55:36 72° WNW 20:55:36 72° WNW 21:01:23 10° NNE
Meteor 1-10 Rocket 4.2 20:55:34 73° ESE 20:55:38 73° E 21:01:12 10° NNE
Cosmos 1536 4.2 20:52:41 10° N 20:55:32 38° NNE 20:55:32 38° NNE
Cosmos 2333 Rocket 2.6 20:51:10 10° NW 20:55:30 51° WNW 20:55:30 51° WNW
NPP 3.9 20:52:52 10° NNE 20:58:14 60° ESE 20:58:27 59° ESE
Lacrosse 5 rocket 3.0 21:00:14 27° ENE 21:00:14 27° ENE 21:02:09 10° ENE
CZ-2D R/B 2.2 20:57:26 10° NNE 21:02:56 72° ESE 21:03:11 71° SE
ARIANE 5 R/B 4.4 20:58:59 10° NE 21:03:04 23° E 21:05:08 18° ESE
Meteor 2-11 Rocket 4.4 20:58:32 10° NNW 21:04:35 65° W 21:04:35 65° W
Cosmos 405 Rocket 4.3 21:01:16 10° N 21:03:26 31° N 21:03:26 31° N
Cosmos 2237 Rocket 2.6 21:00:23 10° NNW 21:06:01 60° NE 21:09:31 23° SE
Meteor 1-27 Rocket 4.1 21:06:11 52° SE 21:07:02 58° E 21:12:44 10° NNE
ATLAS 5 CENTAUR R/B 4.0 21:09:56 10° NW 21:14:32 30° NNE 21:19:46 10° E
Cosmos 1464 Rocket 3.9 21:11:52 10° NNW 21:17:56 63° W 21:18:10 62° WSW
USA 267 4.4 21:14:17 10° ENE 21:19:46 28° SE 21:21:14 26° SSE
Meteor 1-11 Rocket 3.7 21:16:20 10° NNW 21:22:16 71° W 21:22:44 68° SW
Cosmos 1707 Rocket 4.0 21:23:33 54° NNW 21:23:33 54° NNW 21:27:16 10° N
Meteor 1-5 Rocket 4.5 21:17:46 10° NNW 21:22:53 51° WNW 21:22:53 51° WNW
Cosmos 1862 Rocket 3.7 21:27:50 71° ENE 21:27:50 71° ENE 21:32:08 10° NNE
Cosmos 858 Rocket 4.5 21:27:27 66° SSE 21:27:54 71° ESE 21:33:07 10° NNE
ERS-2 3.3 21:30:40 40° N 21:30:40 40° N 21:33:06 10° NNW
Cosmos 2297 Rocket 3.5 21:27:39 26° SE 21:29:34 32° ESE 21:34:33 10° NE
Meteor 2-6 Rocket 4.4 21:34:14 50° W 21:34:26 50° WNW 21:39:42 10° N
Cosmos 1937 Rocket 3.4 21:34:00 68° S 21:34:35 78° ESE 21:39:48 10° NNE
CBERS-1 4.0 21:30:19 10° NNE 21:35:28 75° ESE 21:36:18 61° SSE
Cosmos 2219 3.9 21:35:11 36° SSE 21:36:52 47° ESE 21:42:21 10° NE
CZ-4B R/B 3.3 21:32:09 10° N 21:36:56 65° WNW 21:36:59 65° WNW
STARLINK-1021 4.3 21:38:40 46° ESE 21:38:40 46° ESE 21:41:54 10° ENE
Cosmos 1816 Rocket 4.5 21:36:27 47° S 21:38:27 84° E 21:44:51 10° N
NOSS 0 Rocket 3.9 21:34:57 10° NW 21:41:01 61° WSW 21:42:02 54° SSW
STARLINK-1023 4.1 21:42:12 54° ESE 21:42:12 54° ESE 21:45:45 10° ENE
Timation 2 Rocket 4.1 21:40:17 49° SSW 21:42:23 86° ESE 21:49:20 10° NNE
STARLINK-1019 4.1 21:43:25 52° ESE 21:43:25 52° ESE 21:46:51 10° ENE
Cosmos 2242 Rocket 4.0 21:42:17 51° SE 21:43:06 60° E 21:47:37 10° NNE
Cosmos 2219 Rocket 3.4 21:38:59 10° NW 21:42:02 26° WNW 21:42:02 26° WNW
STARLINK-26 4.1 21:45:58 46° NE 21:45:58 46° NE 21:48:40 10° E
Cosmos 1666 4.1 21:41:41 10° NNW 21:43:44 29° NNW 21:43:44 29° NNW
SJ 16-02 1.8 21:46:18 48° NW 21:46:18 48° NW 21:50:24 10° NNE
Cosmos 1743 3.2 21:42:50 10° N 21:46:43 57° ENE 21:47:13 52° ESE
STARLINK-1012 3.9 21:48:13 58° ESE 21:48:13 58° ESE 21:51:52 10° ENE
Cosmos 1898 Rocket 3.5 21:47:12 59° WSW 21:47:51 65° WNW 21:53:04 10° NNE
STARLINK-61 3.7 21:48:31 69° ENE 21:48:31 69° ENE 21:52:00 10° ENE
STARLINK-81 3.8 21:52:14 60° ESE 21:52:14 60° ESE 21:55:49 10° ENE
Cosmos 1634 Rocket 3.9 21:45:58 10° N 21:52:10 83° E 21:56:06 24° SSE
Cosmos 1703 Rocket 4.3 21:51:13 35° SE 21:52:39 49° E 21:57:00 10° NNE
Okean 1-7 4.0 21:51:31 30° SE 21:53:06 43° E 21:57:17 10° NNE
STARLINK-54 3.7 21:53:58 66° ESE 21:53:58 66° ESE 21:57:39 10° ENE
STARLINK-77 3.7 21:55:23 65° SE 21:55:23 65° SE 21:59:07 10° ENE
Cosmos 990 Rocket 4.1 21:54:22 51° W 21:55:08 56° WNW 22:00:15 10° NNE
Cosmos 2227 Rocket 3.0 21:53:20 28° SSE 21:55:48 44° ESE 22:01:09 10° NE
STARLINK-25 3.6 21:56:59 67° SE 21:56:59 67° SE 22:00:47 10° ENE
SL-08 R/B 3.3 21:55:41 53° S 21:56:49 76° WSW 22:01:48 10° NNW
USA 234 3.3 21:50:20 10° ESE 21:56:52 79° NNE 22:03:26 10° WNW
STARLINK-1026 3.6 21:57:45 70° SE 21:57:45 70° SE 22:01:48 10° ENE
STARLINK-71 3.5 21:58:45 73° SE 21:58:45 73° SE 22:02:39 10° ENE
STARLINK-79 3.5 22:00:10 71° SE 22:00:10 71° SE 22:04:06 10° ENE
COSMOS 2428 4.1 21:55:31 10° NW 21:58:25 23° WNW 21:58:25 23° WNW
STARLINK-1007 3.5 22:01:12 73° S 22:01:18 74° SSE 22:05:30 10° ENE
STARLINK-78 3.5 22:01:46 73° SSE 22:01:46 73° SSE 22:05:45 10° ENE
STARLINK-1013 3.5 22:02:32 73° S 22:02:38 73° SSE 22:06:47 10° ENE
STARLINK-57 3.4 22:03:27 76° SSE 22:03:29 76° SSE 22:07:31 10° ENE
Cosmos 1048 Rocket 4.1 21:58:08 10° NNW 22:03:30 79° ENE 22:08:53 10° SSE
STARLINK-55 3.6 22:04:21 54° NNE 22:04:21 54° NNE 22:07:10 10° E
STARLINK-49 3.4 22:04:57 75° S 22:05:02 75° SSE 22:09:04 10° ENE
H-2A R/B 1.8 22:04:23 55° S 22:05:16 85° WSW 22:09:27 10° NNW
Tsikada Rocket 4.0 22:02:55 40° SSW 22:05:23 72° WNW 22:11:50 10° N
STARLINK-27 3.4 22:06:32 75° S 22:06:41 77° SSE 22:10:43 10° ENE
NOSS 3-2 (A) 4.0 22:04:40 29° S 22:07:17 48° ESE 22:13:32 10° NE
STARLINK-1009 3.4 22:07:20 72° SSW 22:07:38 77° SSE 22:11:47 10° ENE
STARLINK-28 3.5 22:08:01 58° NNE 22:08:01 58° NNE 22:10:59 10° E
Cosmos 1908 Rocket 3.4 22:03:34 10° NNW 22:07:55 65° W 22:08:17 62° SW
Meteor 1-28 Rocket 3.2 22:07:20 54° SSE 22:08:06 79° ENE 22:11:53 10° N
STARLINK-74 3.4 22:08:08 74° SSW 22:08:20 78° SSE 22:12:23 10° ENE
Cosmos 1980 3.8 22:02:59 10° NW 22:08:29 51° WSW 22:09:57 41° SSW
Cosmos 1733 Rocket 4.5 22:05:11 10° NNW 22:07:47 25° WNW 22:07:47 25° WNW
STARLINK-39 3.4 22:09:42 73° SSW 22:09:59 79° SSE 22:14:02 10° ENE
ADEOS II 2.0 22:05:53 10° NNE 22:11:11 80° WNW 22:13:03 41° SSW
STARLINK-31 3.4 22:11:19 72° SW 22:11:39 80° SSE 22:15:42 10° ENE
NOSS 3-3 (A) 4.4 22:04:58 10° NW 22:12:21 80° SW 22:20:36 10° SE
NOSS 3-3 (C) 4.4 22:05:04 10° NW 22:12:27 80° SW 22:20:42 10° SE
STARLINK-1015 3.5 22:12:06 67° SW 22:12:35 80° SSE 22:16:45 10° ENE
STARLINK-48 3.7 22:12:31 47° WNW 22:13:24 65° N 22:17:18 10° E
STARLINK-69 3.4 22:13:03 69° SW 22:13:29 84° SSE 22:17:32 10° ENE
IRS-1D 3.6 22:08:46 10° N 22:13:42 57° WNW 22:15:02 43° WSW
STARLINK-33 3.3 22:13:43 59° N 22:13:44 59° N 22:16:55 10° E
STARLINK-21 3.4 22:14:31 68° SW 22:14:59 83° SSE 22:19:02 10° ENE
SL-16 R/B 3.7 22:15:20 24° W 22:15:20 24° W 22:20:05 10° NW
CENTAUR R/B 3.9 22:11:15 15° SSE 22:15:20 32° ESE 22:21:20 10° NE
STARLINK-45 3.4 22:16:16 64° WSW 22:16:51 87° SSE 22:20:54 10° ENE
STARLINK-1016 3.5 22:16:55 61° WSW 22:17:36 84° SSE 22:21:46 10° ENE
STARLINK-70 3.4 22:17:46 62° WSW 22:18:24 87° SSE 22:22:27 10° ENE
STARLINK-66 3.3 22:18:32 57° NNW 22:18:46 59° N 22:21:58 10° E
Cosmos 405 3.5 22:20:00 44° WNW 22:20:00 44° WNW 22:23:10 10° N
STARLINK-76 3.4 22:19:17 61° WSW 22:19:57 86° SSE 22:24:00 10° ENE
Resurs 1-4 Rocket 3.1 22:15:44 10° N 22:20:19 31° WNW 22:21:36 28° W
STARLINK-23 3.4 22:20:52 58° WSW 22:21:37 87° SSE 22:25:40 10° ENE
STARLINK-1008 3.5 22:21:40 55° WSW 22:22:33 87° SSE 22:26:43 10° ENE
STARLINK-58 3.1 22:22:24 62° NNW 22:22:35 64° N 22:25:45 10° ENE
STARLINK-32 3.4 22:22:27 56° WSW 22:23:15 88° S 22:27:19 10° ENE
COBE Rocket 4.0 22:18:58 10° SSE 22:23:42 70° ENE 22:28:22 10° N
BREEZE-M DEB (TANK) 4.1 22:24:10 17° SSE 22:24:10 17° SSE 22:25:48 10° ESE
STARLINK-40 3.4 22:24:03 54° WSW 22:24:55 90° SSE 22:28:58 10° ENE
Cosmos 2150 Rocket 4.1 22:22:16 30° SSW 22:24:59 78° ESE 22:30:29 10° NNE
STARLINK-1024 4.4 22:24:13 34° S 22:25:03 38° SE 22:28:54 10° ENE
Cosmos 2298 Rocket 4.0 22:22:44 33° SSW 22:25:14 83° ESE 22:30:36 10° NNE
SL-16 R/B 2.2 22:20:14 10° NNW 22:25:57 87° ENE 22:31:38 10° SSE
STARLINK-44 3.4 22:25:39 52° WSW 22:26:35 89° N 22:30:38 10° ENE
IDEFIX/ARIANE 42P 3.4 22:21:54 10° NNE 22:26:57 49° E 22:31:46 11° S
STARLINK-37 3.5 22:27:20 49° WSW 22:28:21 87° NNW 22:32:25 10° ENE
STARLINK-75 3.3 22:28:40 47° NW 22:29:17 59° N 22:32:28 10° E
STARLINK-36 3.5 22:28:47 48° WSW 22:29:52 87° N 22:33:54 10° ENE
STARLINK-1035 4.4 22:28:59 34° S 22:29:58 41° SSE 22:33:52 10° ENE
STARLINK-68 3.5 22:30:32 45° W 22:31:43 84° NNW 22:35:46 10° ENE
Cosmos 2082 4.4 22:28:08 18° S 22:32:14 51° ESE 22:37:47 10° NE
STARLINK-1025 3.5 22:31:14 44° WSW 22:32:31 88° NNW 22:36:41 10° ENE
IRS-1C 4.2 22:27:45 10° N 22:33:00 59° WNW 22:35:26 31° SW
STARLINK-63 3.5 22:32:04 44° W 22:33:18 84° NNW 22:37:21 10° ENE
STARLINK 1040 3.0 22:33:27 53° NNW 22:33:37 55° N 22:36:19 10° E
STARLINK-35 3.5 22:33:34 42° W 22:34:50 85° NNW 22:38:54 10° ENE
STARLINK-1032 4.3 22:33:47 34° S 22:34:56 43° SSE 22:38:53 10° ENE
STARLINK-80 3.5 22:34:30 29° WNW 22:36:19 72° N 22:40:08 10° E
Okean 3 4.5 22:32:33 11° SSE 22:36:21 44° E 22:40:20 10° NNE
STARLINK-51 3.5 22:35:09 41° W 22:36:30 84° NNW 22:40:33 10° ENE
Cosmos 1300 Rocket 4.3 22:32:25 10° N 22:36:40 52° ENE 22:40:53 10° SSE
STARLINK-1017 3.6 22:36:01 39° WSW 22:37:30 85° NNW 22:41:40 10° ENE
Lacrosse 5 rocket 2.2 22:35:51 24° WNW 22:37:39 39° NNW 22:41:28 10° ENE
STARLINK-30 3.5 22:36:45 39° W 22:38:09 83° NNW 22:42:12 10° ENE
NOSS 3-2 (C) 4.1 22:34:16 19° S 22:38:13 50° ESE 22:44:32 10° NE
STARLINK-72 3.5 22:38:20 38° W 22:39:48 82° NNW 22:43:52 10° ENE
STARLINK-1011 4.2 22:38:34 33° SSW 22:39:54 46° SSE 22:43:53 10° ENE
Sich 1 Rocket 3.4 22:36:07 10° NNW 22:40:32 76° W 22:44:22 13° S
Okean 2 Rocket 3.4 22:36:35 10° N 22:41:05 70° ENE 22:45:36 10° SSE
Cosmos 2279 Rocket 3.9 22:34:53 10° NNW 22:41:07 72° W 22:47:20 10° S
STARLINK-50 3.5 22:39:56 36° W 22:41:28 81° NNW 22:45:31 10° ENE
SAR-Lupe-4 3.4 22:39:46 26° S 22:41:39 70° WSW 22:45:15 10° NNW
Spot 4 Rocket 4.0 22:36:34 10° NNE 22:41:46 82° WNW 22:45:07 22° SSW
Cosmos 2151 Rocket 4.4 22:37:56 10° N 22:42:15 51° ENE 22:46:32 10° SSE
CZ-2D R/B 3.6 22:38:14 10° N 22:42:30 24° WNW 22:44:31 19° W
ARIANE 5 R/B 2.6 22:37:26 10° N 22:42:36 63° WNW 22:45:29 26° SW
STARLINK-59 3.5 22:41:36 35° W 22:43:13 79° NNW 22:47:16 10° ENE
STARLINK-34 3.3 22:42:34 36° WNW 22:43:38 60° N 22:46:50 10° ENE
STARLINK-1029 3.2 22:43:26 40° WNW 22:44:19 62° N 22:47:27 10° ENE
STARLINK-62 3.3 22:43:33 35° WNW 22:44:40 60° N 22:47:51 10° ENE
STARLINK-56 3.5 22:43:06 34° W 22:44:46 80° NNW 22:48:49 10° ENE
STARLINK-1036 4.1 22:43:20 32° SSW 22:44:50 49° SSE 22:48:52 10° ENE
STARLINK-22 3.4 22:44:23 32° WNW 22:45:39 60° N 22:48:52 10° E
Meteor 1-19 Rocket 4.2 22:41:28 16° S 22:46:00 86° ESE 22:51:32 10° NNE
Cosmos 1689 Rocket 4.2 22:43:29 10° SE 22:46:11 30° ENE 22:48:52 10° N
STARLINK-73 3.5 22:44:41 33° W 22:46:26 79° NNW 22:50:28 10° ENE
STARLINK-38 3.6 22:46:17 31° W 22:48:06 78° NNW 22:52:09 10° ENE
CZ-4C R/B 3.7 22:48:48 30° WNW 22:48:48 30° WNW 22:51:08 10° NNW
Cosmos 2237 Rocket 3.0 22:44:58 10° NW 22:49:44 28° WSW 22:51:13 25° SW
STARLINK-65 3.6 22:47:53 30° W 22:49:46 77° NNW 22:53:49 10° ENE
STARLINK-1044 4.0 22:48:08 30° SSW 22:49:50 52° SSE 22:53:53 10° ENE
STARLINK-1014 3.6 22:49:12 30° W 22:51:07 78° NNW 22:55:10 10° ENE
STARLINK-53 3.6 22:49:32 29° W 22:51:30 76° NNW 22:55:32 10° ENE
STARLINK-1048 3.6 22:50:22 28° W 22:52:27 78° NNW 22:56:37 10° ENE
STARLINK-64 3.5 22:52:12 25° WNW 22:54:07 63° N 22:57:40 10° E
STARLINK-1047 3.9 22:52:54 29° SW 22:54:46 55° SSE 22:58:50 10° ENE
STARLINK-1037 3.9 22:53:44 28° SW 22:55:38 56° SSE 22:59:42 10° ENE
Landsat 5 3.7 22:54:26 29° SW 22:55:39 38° W 22:59:17 10° NNW
STARLINK-1049 3.7 22:55:09 26° W 22:57:26 76° NNW 23:01:36 10° ENE
STARLINK-1010 3.8 22:56:29 23° W 22:59:01 73° N 23:03:15 10° ENE
SAR-Lupe-1 4.2 22:56:45 19° S 22:59:05 49° W 23:02:37 10° NNW
ATLAS 5 CENTAUR R/B 2.4 22:54:23 10° NW 22:59:55 79° NE 23:06:23 10° SE
CZ-2C R/B 3.8 22:56:04 10° NNE 23:00:16 34° E 23:04:26 10° SSE
Okean 1 3.9 22:59:42 27° WSW 23:01:12 38° WNW 23:04:57 10° N
STARLINK-1051 3.7 22:59:57 23° W 23:02:27 74° N 23:06:36 10° ENE
STARLINK-24 3.7 23:00:07 23° W 23:02:31 72° N 23:06:33 10° ENE
STARLINK-43 3.3 23:00:17 21° W 23:02:36 61° SSW 23:06:15 10° SE
Meteor 1-4 Rocket 4.0 22:59:23 10° SSE 23:02:55 39° E 23:06:28 10° NNE
USA 267 3.3 22:56:54 10° ENE 23:03:29 77° SSE 23:08:35 18° SW
RUBIN 8/PSLV 4.5 22:59:31 10° NNE 23:03:50 80° WNW 23:07:24 15° SSW
STARLINK-1059 3.8 23:02:29 25° SW 23:04:44 62° SSE 23:08:50 10° ENE
Cosmos 2263 Rocket 4.3 23:02:38 10° SSE 23:07:05 24° ESE 23:11:33 10° NE
Cosmos 1515 3.8 23:06:00 22° SSW 23:08:16 54° WNW 23:12:02 10° N
STARLINK-1057 3.8 23:07:16 23° SW 23:09:42 65° SSE 23:13:49 10° ENE
Cosmos 389 Rocket 2.4 23:07:12 16° SSW 23:09:55 81° WNW 23:13:28 10° N
STARLINK-41 3.2 23:07:55 18° WNW 23:10:07 65° N 23:13:17 10° E
Cosmos 1975 3.6 23:07:35 10° NNW 23:11:12 32° W 23:13:28 18° SW
ATLAS 3B R/B 3.6 23:05:18 10° S 23:11:31 44° ESE 23:17:44 10° NE
STARLINK-1028 3.8 23:09:29 19° W 23:12:22 72° N 23:16:32 10° ENE
CZ-4B R/B 1.5 23:09:02 10° S 23:12:29 59° WSW 23:15:57 10° NNW
STARLINK-42 3.2 23:10:16 17° WNW 23:12:40 69° N 23:15:53 10° E
Cosmos 2297 Rocket 2.5 23:09:28 19° SW 23:13:24 53° NW 23:18:58 10° NNE
STARLINK-1034 3.7 23:12:03 21° SW 23:14:41 69° SSE 23:18:49 10° ENE
Cosmos 1818 3.6 23:11:09 10° NW 23:16:30 59° SW 23:21:49 10° SSE
STARLINK-1021 3.8 23:14:18 17° W 23:17:24 70° N 23:21:34 10° ENE
MSX 3.9 23:11:40 10° NNE 23:17:29 85° ESE 23:23:16 10° SSW
Meteor 2-4 Rocket 3.8 23:12:53 10° SSW 23:18:50 82° WNW 23:24:45 10° NNE
STARLINK-1068 3.7 23:16:48 20° WSW 23:19:37 72° SSE 23:23:45 10° ENE
ATLAS CENTAUR R/B 1.7 23:18:53 20° S 23:19:49 31° SE 23:22:08 10° ENE
Cosmos 2219 3.9 23:17:07 17° WSW 23:21:09 40° NW 23:26:35 10° NNE
STARLINK-1023 3.9 23:18:03 15° W 23:21:26 69° N 23:25:38 10° ENE
Cosmos 1544 4.0 23:18:37 10° NNW 23:21:48 28° W 23:24:12 15° SW
STARLINK-1019 3.8 23:19:03 15° W 23:22:22 69° N 23:26:31 10° ENE
STARLINK-26 3.1 23:19:15 12° WNW 23:22:24 87° SSW 23:25:52 10° ESE
Cosmos 494 Rocket 4.4 23:19:00 10° NW 23:23:56 41° WSW 23:28:50 10° S
CZ-2D R/B 4.4 23:21:49 10° N 23:25:35 31° WNW 23:28:20 16° WSW
STARLINK-61 3.8 23:23:22 12° W 23:26:59 66° N 23:30:53 10° E
CZ-2C R/B 3.5 23:23:25 10° N 23:27:14 39° WNW 23:30:22 14° SW
STARLINK-1012 3.8 23:23:51 14° W 23:27:23 68° N 23:31:32 10° E
SeaSat 1 2.4 23:22:30 10° SSE 23:27:27 84° WSW 23:32:26 10° NNW
STARLINK-1060 3.6 23:26:22 17° WSW 23:29:34 79° SSE 23:33:43 10° ENE
Okean 1 Rocket 3.4 23:26:08 10° N 23:30:30 71° ENE 23:34:53 10° SSE
Okean 1-7 4.3 23:28:23 15° WSW 23:30:52 24° WNW 23:34:30 10° NNW
STARLINK-81 3.8 23:27:27 13° W 23:31:01 67° N 23:35:02 10° E
COSMOS 2441 4.3 23:26:47 10° NNE 23:31:37 80° WNW 23:36:24 10° SSW
STARLINK-54 3.8 23:29:11 12° W 23:32:52 66° N 23:36:53 10° E
USA 238 DEB 3.9 23:27:26 14° WSW 23:33:19 65° NW 23:40:19 10° NE
USA 238 3.9 23:27:30 14° WSW 23:33:25 66° NW 23:40:27 10° NE
STARLINK-77 3.8 23:30:36 12° W 23:34:18 67° N 23:38:20 10° E
STARLINK-1030 3.6 23:31:09 15° WSW 23:34:32 82° SSE 23:38:42 10° ENE
Meteor 1-31 Rocket 4.5 23:31:10 10° NNE 23:34:50 35° E 23:38:28 10° SSE
STARLINK-25 3.8 23:32:12 12° W 23:35:58 66° N 23:40:00 10° E
STARLINK-1026 3.9 23:33:23 11° W 23:37:20 67° N 23:41:29 10° E
STARLINK-71 3.8 23:33:59 11° W 23:37:52 66° N 23:41:53 10° E
Cosmos 1269 Rocket 4.3 23:33:15 10° NW 23:38:18 44° WSW 23:43:18 10° S
STARLINK-79 3.8 23:35:23 11° W 23:39:18 66° N 23:43:19 10° E
STARLINK-1020 3.6 23:35:57 14° WSW 23:39:31 85° SSE 23:43:42 10° ENE
Cosmos 2227 Rocket 2.8 23:35:09 13° WSW 23:39:56 41° NW 23:45:17 10° NNE
USA 234 3.5 23:33:58 10° SSE 23:40:12 46° SW 23:46:28 10° WNW
STARLINK-55 2.9 23:37:01 10° WNW 23:40:15 90° NE 23:43:27 10° ESE
STARLINK-78 3.8 23:36:59 10° W 23:40:58 66° N 23:45:00 10° E
STARLINK-1007 3.9 23:37:02 10° W 23:41:13 67° N 23:45:25 10° E
H-2A R/B 4.0 23:41:28 10° W 23:41:54 11° W 23:42:46 10° WNW
STARLINK-1013 3.9 23:38:11 10° W 23:42:19 67° N 23:46:28 10° E
Aureole 3 Rocket 4.4 23:37:30 10° N 23:42:25 46° ENE 23:46:03 10° SE
STARLINK-57 3.8 23:38:43 10° W 23:42:44 66° N 23:46:46 10° E
STARLINK-28 2.9 23:40:51 10° WNW 23:44:04 84° SSW 23:47:17 10° ESE
STARLINK-49 3.8 23:40:16 10° W 23:44:17 66° N 23:48:19 10° E
STARLINK-1052 3.6 23:40:44 12° WSW 23:44:31 88° SSE 23:48:41 10° ENE
Cosmos 1943 3.3 23:39:56 10° NNW 23:45:41 86° ENE 23:51:25 10° SSE
STARLINK-27 3.8 23:41:55 10° W 23:45:56 66° N 23:49:57 10° E
STARLINK-1027 3.7 23:42:38 12° WSW 23:46:38 89° N 23:50:54 10° ENE
STARLINK-1009 3.9 23:43:11 10° W 23:47:20 67° N 23:51:28 10° E
STARLINK-74 3.8 23:43:35 10° W 23:47:36 66° N 23:51:37 10° E
STARLINK-39 3.8 23:45:14 10° W 23:49:15 66° N 23:53:16 10° E
STARLINK-33 2.9 23:46:47 10° WNW 23:50:01 85° SSW 23:53:14 10° ESE
ADEOS II 3.8 23:46:54 10° NNW 23:50:06 17° NW 23:53:18 10° W
STARLINK-31 3.8 23:46:55 10° W 23:50:56 66° N 23:54:58 10° E
Cosmos 2251 Rocket 3.7 23:45:52 10° NNW 23:51:17 81° ENE 23:56:36 10° SSE
COSMO-SKYMED 1 3.8 23:47:24 10° SE 23:51:35 49° ENE 23:55:48 10° N
Cosmos 1356 4.5 23:49:15 10° NW 23:52:08 25° W 23:55:01 10° SSW
STARLINK-48 3.4 23:48:16 10° WNW 23:52:12 84° SSW 23:56:06 10° ESE
STARLINK-1015 3.9 23:48:10 10° W 23:52:19 67° N 23:56:27 10° E
STARLINK-69 3.8 23:48:46 10° W 23:52:47 66° N 23:56:48 10° E
deb Chang Zheng 4 4.3 23:49:30 10° N 23:53:25 34° WNW 23:57:21 10° SW
Geosat 4.0 23:48:22 10° NNE 23:53:27 87° WNW 23:58:29 10° SW
STARLINK-21 3.9 23:50:15 10° W 23:54:17 66° N 23:58:18 10° E
STARLINK-1031 3.7 23:50:05 10° WSW 23:54:22 83° NNW 23:58:39 10° ENE
STARLINK-1033 3.6 23:50:19 10° WSW 23:54:28 86° NNW 23:58:38 10° ENE
STARLINK-66 2.9 23:51:49 10° WNW 23:55:02 80° SSW 23:58:16 10° ESE
